Preview of NWS' New Version of Forecast
This preview is not operational and should not be used for support decisions.

Regional Weather Roundup (RWR)

Issued by Columbia, SC (CAE)

                            
000
ASUS42 KCAE 200710
RWRCAE
REGIONAL WEATHER ROUNDUP
NATIONAL WEATHER SERVICE COLUMBIA SC
300 AM EDT MON MAY 20 2019

NOTE: "FAIR" INDICATES FEW OR NO CLOUDS BELOW 12,000 FEET WITH NO
SIGNIFICANT WEATHER AND/OR OBSTRUCTIONS TO VISIBILITY.

NOT ALL STATIONS ARE QUALITY CONTROLLED BY THE NATIONAL 
WEATHER SERVICE. USE DATA WITH CAUTION...ESPECIALLY 
DEWPOINT OBSERVATIONS.

SCZ001>056-GAZ040-063>065-077-200800-
...UPSTATE SOUTH CAROLINA...
  
CITY           SKY/WX    TMP DP  RH WIND       PRES   REMARKS
ANDERSON       FAIR      70  63  78 S7        30.02S                  
LIBERTY        PTSUNNY   67  66  96 S5        30.01S                  
SPARTANBURG    FAIR      68  61  77 SW3       30.02S                  
CLEMSON        FAIR      69  64  84 CALM      30.03R                  
GREENVILLE     FAIR      71  61  70 S5        30.03F                  
GREENWOOD      FAIR      71  67  87 S9        30.04S                  
GREER          FAIR      71  62  73 S9        30.03S                  
ROCK HILL      FAIR      70  66  87 S8        30.03F                  
CHESTER        FAIR      70  64  83 S6        30.04S                  
LAURENS        FAIR      68  64  88 S7        30.03S                  


...CENTRAL SOUTH CAROLINA...
  
CITY           SKY/WX    TMP DP  RH WIND       PRES   REMARKS
COLUMBIA APT   CLOUDY    73  67  81 S7        30.03S                  
COLUMBIA OWENS CLOUDY    73  68  84 S6        30.04F                  
MCENTIRE ANGB  FAIR      69  69 100 CALM      30.05S                  
ORANGEBURG     FAIR      69  67  93 CALM      30.05S                  
SUMTER SHAW    FAIR      70  68  93 S3        30.04F                  
NEWBERRY       FAIR      72  70  94 S6        30.06S                  
AIKEN          PTSUNNY   70  70 100 S9        30.07F                  
BARNWELL       PTSUNNY   72  70  94 SE3       30.05S                  
MANNING        FAIR      72  68  88 S5        30.05S                  
CAMDEN         FAIR      72  68  88 S5        30.05F                  
LANCASTER      FAIR      70  70 100 S6        30.04S                  
WINNSBORO      FAIR      70  68  94 S7        30.04S                  


...EASTERN AND COASTAL SOUTH CAROLINA...
  
CITY           SKY/WX    TMP DP  RH WIND       PRES   REMARKS
MYRTLE BEACH   FAIR      74  67  78 S8        30.05F                  
N MYRTLE BCH   FAIR      74  68  81 S10       30.05S                  
CONWAY         FAIR      63  61  94 CALM      30.06F                  
MARION         FAIR      68  64  88 S5        30.05F                  
HARTSVILLE     FAIR      66  66 100 CALM      30.05S                  
FLORENCE       FAIR      72  67  84 S3        30.05S                  
DARLINGTON     FAIR      70  68  93 S7        30.05F                  
CHARLESTON APT FAIR      70  67  90 S5        30.05S                  
MOUNT PLEASANT   N/A     68  66  94 CALM      30.05S                  
WALTERBORO     FAIR      68  66  94 CALM      30.06S                  
BEAUFORT       MOCLDY    76  72  87 S5        30.04S                  
HILTON HEAD    FAIR      75  72  88 S7G14     30.05S                  


...EASTERN GEORGIA...
  
CITY           SKY/WX    TMP DP  RH WIND       PRES   REMARKS
AUGUSTA BUSH F FAIR      72  70  93 S5        30.03S                  
AUGUSTA DANIEL FAIR      73  68  84 S7        30.04S                  
THOMSON        FAIR      72  69  89 SW5       30.03S                  
CLAXTON        FOG       69  69  98 CALM      30.05R VSB 3/4          
SYLVANIA       FAIR      71  70  96 CALM      30.05S FOG              
STATESBORO     FAIR      70  68  93 CALM      30.04S                  
SAVANNAH       FAIR      74  71  91 S5        30.04S                  


...SOUTHERN NORTH CAROLINA...
  
CITY           SKY/WX    TMP DP  RH WIND       PRES   REMARKS
CHARLOTTE      FAIR      72  66  81 S10       30.03S                  
MONROE         FAIR      70  66  87 S7        30.02F                  
WADESBORO      FAIR      71  66  84 S6        30.03S                  
ROCKINGHAM     FAIR      69  69 100 CALM      30.05S                  
RUTHERFORDTON  FAIR      66  55  68 CALM      30.04S                  
ASHEVILLE      FAIR      63  60  90 CALM      30.07S                  

$$